| time (UTC) | temp F | wind direction | speed MPH | gust MPH | rain 1hr in | rain 24hr in | rain mn in | humidity % | barometer mb |
| 20260504173046 | 74 | 264 | 10.0 | 15.0 | 0.00 | 0.00 | 0.00 | 51 | 1017.2 |
| 20260504171545 | 73 | 280 | 9.0 | 15.0 | 0.00 | 0.00 | 0.00 | 53 | 1017.5 |
| 20260504081509 | 43 | 215 | 0.0 | 0.0 | 0.00 | 0.00 | 0.00 | 1 | 1018.8 |
| 20260504050015 | 44 | 215 | 0.0 | 1.0 | 0.00 | 0.00 | 0.00 | 20 | 1020.0 |
| 20260504044506 | 45 | 216 | 0.0 | 0.0 | 0.00 | 0.00 | 0.00 | 22 | 1020.1 |
| 20260504043002 | 45 | 217 | 0.0 | 0.0 | 0.00 | 0.00 | 0.00 | 22 | 1020.3 |
| 20260504041558 | 45 | 216 | 0.0 | 0.0 | 0.00 | 0.00 | 0.00 | 28 | 1020.4 |
| 20260504040054 | 45 | 217 | 0.0 | 0.0 | 0.00 | 0.00 | 0.00 | 33 | 1020.5 |
| 20260504034550 | 46 | 217 | 0.0 | 0.0 | 0.00 | 0.00 | 0.00 | 32 | 1020.5 |
| 20260504033045 | 46 | 217 | 0.0 | 0.0 | 0.00 | 0.00 | 0.00 | 43 | 1020.5 |
| 20260504031541 | 46 | 217 | 0.0 | 0.0 | 0.00 | 0.00 | 0.00 | 45 | 1020.5 |
| 20260504030037 | 46 | 217 | 0.0 | 0.0 | 0.00 | 0.00 | 0.00 | 53 | 1020.6 |
| 20260504024534 | 47 | 217 | 0.0 | 1.0 | 0.00 | 0.00 | 0.00 | 61 | 1020.5 |
| 20260504023029 | 48 | 216 | 0.0 | 0.0 | 0.00 | 0.00 | 0.00 | 67 | 1020.8 |
| 20260504021524 | 48 | 217 | 0.0 | 0.0 | 0.00 | 0.00 | 0.00 | 69 | 1020.8 |
| 20260504020023 | 49 | 217 | 0.0 | 0.0 | 0.00 | 0.00 | 0.00 | 73 | 1020.6 |
| 20260504014519 | 50 | 217 | 0.0 | 0.0 | 0.00 | 0.00 | 0.00 | 75 | 1020.3 |
| 20260504013028 | 52 | 217 | 0.0 | 0.0 | 0.00 | 0.00 | 0.00 | 74 | 1020.2 |
| 20260504011506 | 53 | 217 | 0.0 | 0.0 | 0.00 | 0.00 | 0.00 | 72 | 1020.0 |
| 20260504010002 | 55 | 217 | 0.0 | 1.0 | 0.00 | 0.00 | 0.00 | 70 | 1019.9 |
| 20260504004635 | 59 | 216 | 0.0 | 2.0 | 0.00 | 0.00 | 0.00 | 65 | 1019.7 |
| 20260504003059 | 62 | 216 | 0.0 | 2.0 | 0.00 | 0.00 | 0.00 | 56 | 1019.5 |
| 20260504001617 | 64 | 216 | 0.0 | 2.0 | 0.00 | 0.00 | 0.00 | 48 | 1019.8 |
| 20260504000046 | 65 | 222 | 1.0 | 3.0 | 0.00 | 0.00 | 0.00 | 47 | 1019.9 |
| 20260503234539 | 66 | 237 | 3.0 | 6.0 | 0.00 | 0.00 | 0.00 | 44 | 1020.0 |
| 20260503233040 | 67 | 254 | 3.0 | 9.0 | 0.00 | 0.00 | 0.00 | 43 | 1020.1 |
| 20260503231531 | 67 | 273 | 4.0 | 7.0 | 0.00 | 0.00 | 0.00 | 42 | 1020.4 |
| 20260503230026 | 67 | 275 | 5.0 | 8.0 | 0.00 | 0.00 | 0.00 | 42 | 1020.5 |
| 20260503224522 | 67 | 297 | 5.0 | 10.0 | 0.00 | 0.00 | 0.00 | 42 | 1020.6 |
| 20260503223018 | 67 | 293 | 6.0 | 10.0 | 0.00 | 0.00 | 0.00 | 43 | 1020.8 |
| 20260503221514 | 67 | 297 | 6.0 | 9.0 | 0.00 | 0.00 | 0.00 | 41 | 1020.8 |
| 20260503220010 | 67 | 232 | 7.0 | 11.0 | 0.00 | 0.00 | 0.00 | 42 | 1021.0 |
| 20260503214505 | 66 | 265 | 8.0 | 11.0 | 0.00 | 0.00 | 0.00 | 41 | 1021.1 |
| 20260503213002 | 66 | 275 | 7.0 | 14.0 | 0.00 | 0.00 | 0.00 | 42 | 1021.2 |
| 20260503211557 | 66 | 273 | 6.0 | 13.0 | 0.00 | 0.00 | 0.00 | 43 | 1021.4 |
| 20260503210052 | 66 | 232 | 7.0 | 13.0 | 0.00 | 0.00 | 0.00 | 42 | 1021.6 |
| 20260503204548 | 65 | 271 | 7.0 | 13.0 | 0.00 | 0.00 | 0.00 | 43 | 1021.8 |
| 20260503203102 | 65 | 235 | 7.0 | 14.0 | 0.00 | 0.00 | 0.00 | 45 | 1022.0 |
| 20260503201538 | 65 | 232 | 6.0 | 11.0 | 0.00 | 0.00 | 0.00 | 44 | 1022.5 |
| 20260503200035 | 65 | 155 | 2.0 | 11.0 | 0.00 | 0.00 | 0.00 | 46 | 1022.7 |
| 20260503194539 | 64 | 167 | 4.0 | 12.0 | 0.00 | 0.00 | 0.00 | 45 | 1022.9 |
| 20260503193026 | 64 | 250 | 3.0 | 9.0 | 0.00 | 0.00 | 0.00 | 43 | 1023.3 |
| 20260503191522 | 63 | 187 | 0.0 | 9.0 | 0.00 | 0.00 | 0.00 | 46 | 1023.5 |
| 20260503190026 | 63 | 293 | 3.0 | 11.0 | 0.00 | 0.00 | 0.00 | 46 | 1023.8 |
| 20260503184522 | 63 | 235 | 1.0 | 4.0 | 0.00 | 0.00 | 0.00 | 52 | 1023.9 |
| 20260503183008 | 62 | 302 | 1.0 | 10.0 | 0.00 | 0.00 | 0.00 | 51 | 1024.2 |
| 20260503181505 | 62 | 177 | 2.0 | 12.0 | 0.00 | 0.00 | 0.00 | 50 | 1024.4 |
| 20260503180100 | 61 | 330 | 2.0 | 13.0 | 0.00 | 0.00 | 0.00 | 49 | 1024.5 |
| 20260503174555 | 61 | 254 | 3.0 | 9.0 | 0.00 | 0.00 | 0.00 | 51 | 1024.8 |